Погода в Лебедеве

Россия / Новосибирская область     54°55′10″N   84°20′18″E
темп.,
°C
ветер,
м/с
пор.,
м/с
влажн.,
%
обл.,
%
осадки,
мм/ч
давл.,
гПа
погр.,
м
20 сентября, пн
пн2001:00+6зюз497862 0.0 1006523
04:00+4юз3981100 0.0 1007242
07:00+4зюз588982 0.2 1008581
10:00+5зюз81269100 0.1 10101304
13:00+5юз91374100 0.4 10111291
16:00+4зюз71295100 1.3 1011962
19:00+3зюз61190100 2.1 1012825
22:00+2зюз4996100 0.1 1012505
21 сентября, вт
вт2101:00+2зюз5993100 0.5 1012703
04:00+2зюз5889100 0.2 1013846
07:00+1зюз5989100 0.3 1014574
10:00+2юз51099100 0.3 1014505
13:00+2зюз5997100 0.9 1015451
16:00+4з598983 0.4 1016762
19:00+3з498582 0.6 1017364
22:00+1зюз4995100 0.2 1018235
22 сентября, ср
ср2201:00+1зюз4898100 0.2 1018338
04:00+2зюз4892100 0.0 1018527
07:00+1зюз3898100 0.1 1018452
10:00+2зюз4896100 0.6 1018433
13:00+2зюз5893100 1.3 1018653
16:00+4зюз6782100 0.8 1018977
19:00+3з3693100 1.4 1019445
22:00+1зюз269782 0.1 1020207
23 сентября, чт
чт2301:000зюз359872 0.1 1020119
04:00+1з2498100 0.0 1020195
07:00+1сз2398100 0.2 1021142
10:00+1сз2392100 0.2 1022372
13:00+4сз337299 0.4 1023979
16:00+4зсз3464100 0.2 10241147
19:00+3зсз2376100 0.3 102691
22:00+2ссз2387100 0.2 1027111
24 сентября, пт
пт2401:00+1с1188100 0.3 102720
04:000з229087 0.0 102719
07:00−1з249658 0.1 102885
10:00+2з457653 0.0 1029704
13:00+3з4661100 0.1 10291228
16:00+5зюз6760100 0.0 10281261
19:00+4зюз5974100 0.0 1029715
22:00+3зюз51087100 0.0 1029578